RYR393A LFMP-EGSS

Flight info

Callsign RYR393A
Flight time 1h 32m
Altitude 38000
Route ORBIL G36 GAI DCT POKET DCT TUPAR UN861 DIKRO UM185 TELTU
Aircraft B738/M-SDE2E3FGHIRWXY/LB1

Departure

Time 2026-05-04 16:40
Airport Perpignan-Rivesaltes (Llabanère) Airport (LFMP)

Arrival

Time 2026-05-04 18:13
Airport London Stansted Airport (EGSS)
Time Latitude Longitude Altitude Speed Heading
2026-05-04 16:09 42.74013 2.86865 149 ft 0 kts 349°
2026-05-04 16:37 42.73991 2.86854 149 ft 9 kts 171°
2026-05-04 16:37 42.73955 2.86886 149 ft 11 kts 106°
2026-05-04 16:37 42.73976 2.87079 149 ft 10 kts 80°
2026-05-04 16:38 42.73883 2.87217 149 ft 13 kts 147°
2026-05-04 16:39 42.73611 2.87515 149 ft 20 kts 82°
2026-05-04 16:39 42.73914 2.87426 149 ft 73 kts 328°
2026-05-04 16:40 42.75539 2.86095 644 ft 167 kts 331°
2026-05-04 16:40 42.77593 2.84389 2352 ft 178 kts 327°
2026-05-04 16:41 42.80023 2.82324 3245 ft 229 kts 330°
2026-05-04 16:41 42.84735 2.78376 5014 ft 282 kts 328°
2026-05-04 16:42 42.89812 2.74094 7829 ft 293 kts 327°
2026-05-04 16:43 42.93312 2.71137 9654 ft 299 kts 326°
2026-05-04 16:43 42.97002 2.68010 10669 ft 336 kts 325°
2026-05-04 16:43 42.99029 2.66288 11232 ft 348 kts 325°
2026-05-04 16:44 43.07432 2.59158 14447 ft 364 kts 324°
2026-05-04 16:45 43.11786 2.55453 15942 ft 373 kts 324°
2026-05-04 16:46 43.18507 2.49722 18021 ft 386 kts 324°
2026-05-04 16:46 43.23102 2.45781 19332 ft 394 kts 324°
2026-05-04 16:47 43.27786 2.41748 20605 ft 401 kts 324°
2026-05-04 16:47 43.32557 2.37636 21797 ft 409 kts 323°
2026-05-04 16:48 43.39860 2.31286 23455 ft 418 kts 323°
2026-05-04 16:48 43.42327 2.29124 23960 ft 422 kts 323°
2026-05-04 16:49 43.47320 2.24742 24963 ft 429 kts 323°
2026-05-04 16:49 43.52363 2.20236 25877 ft 435 kts 322°
2026-05-04 16:50 43.57435 2.15671 26760 ft 441 kts 322°
2026-05-04 16:50 43.62619 2.11006 27575 ft 448 kts 322°
2026-05-04 16:51 43.67874 2.06274 28383 ft 453 kts 322°
2026-05-04 16:51 43.70517 2.03890 28753 ft 456 kts 322°
2026-05-04 16:51 43.75918 1.99141 29449 ft 463 kts 323°
2026-05-04 16:52 43.81427 1.94447 30151 ft 467 kts 323°
2026-05-04 16:52 43.84197 1.92078 30465 ft 470 kts 323°
2026-05-04 16:53 43.89781 1.87263 31051 ft 475 kts 322°
2026-05-04 16:53 43.98091 1.79860 32316 ft 468 kts 318°
2026-05-04 16:54 44.00721 1.77219 32700 ft 465 kts 316°
2026-05-04 16:55 44.11009 1.66495 34325 ft 460 kts 315°
2026-05-04 16:55 44.16170 1.61223 34985 ft 459 kts 316°
2026-05-04 16:56 44.21303 1.55996 35733 ft 455 kts 316°
2026-05-04 16:56 44.28910 1.48195 36576 ft 454 kts 316°
2026-05-04 16:57 44.31480 1.45551 36846 ft 453 kts 316°
2026-05-04 16:57 44.36488 1.40393 37571 ft 446 kts 316°
2026-05-04 16:58 44.43977 1.32647 37934 ft 448 kts 317°
2026-05-04 16:58 44.46478 1.30053 37929 ft 447 kts 317°
2026-05-04 17:00 44.61276 1.14673 37940 ft 440 kts 317°
2026-05-04 17:01 44.73584 1.01795 37939 ft 443 kts 317°
2026-05-04 17:02 44.83493 0.91382 37919 ft 446 kts 317°
2026-05-04 17:03 44.90960 0.83505 37928 ft 448 kts 317°
2026-05-04 17:03 44.98451 0.75576 37928 ft 449 kts 317°
2026-05-04 17:04 45.08458 0.64939 37928 ft 450 kts 317°
2026-05-04 17:05 45.18744 0.54703 37920 ft 453 kts 321°
2026-05-04 17:06 45.26634 0.47322 37912 ft 452 kts 321°
2026-05-04 17:07 45.33577 0.40721 37920 ft 451 kts 321°
2026-05-04 17:07 45.39621 0.34942 37923 ft 450 kts 321°
2026-05-04 17:08 45.47409 0.27465 37933 ft 450 kts 321°
2026-05-04 17:09 45.52593 0.22476 37932 ft 450 kts 321°
2026-05-04 17:09 45.57776 0.17475 37936 ft 450 kts 321°
2026-05-04 17:10 45.70766 0.04893 37936 ft 452 kts 321°
2026-05-04 17:11 45.75982 -0.00179 37938 ft 454 kts 321°
2026-05-04 17:12 45.83820 -0.07823 37943 ft 455 kts 322°
2026-05-04 17:13 45.96912 -0.20645 37945 ft 456 kts 322°
2026-05-04 17:14 46.07346 -0.30919 37939 ft 456 kts 322°
2026-05-04 17:15 46.15174 -0.38662 37943 ft 455 kts 322°
2026-05-04 17:16 46.25590 -0.48999 37948 ft 454 kts 322°
2026-05-04 17:17 46.35982 -0.59368 37953 ft 453 kts 322°
2026-05-04 17:17 46.44194 -0.66123 37962 ft 458 kts 340°
2026-05-04 17:18 46.47297 -0.67220 37955 ft 461 kts 350°
2026-05-04 17:19 46.60056 -0.69239 37968 ft 462 kts 352°
2026-05-04 17:20 46.72829 -0.71325 37954 ft 462 kts 352°
2026-05-04 17:20 46.82422 -0.72952 37958 ft 463 kts 352°
2026-05-04 17:21 46.95229 -0.75131 37952 ft 463 kts 352°
2026-05-04 17:22 47.01630 -0.76221 37949 ft 463 kts 352°
2026-05-04 17:23 47.14423 -0.78410 37958 ft 463 kts 352°
2026-05-04 17:24 47.23970 -0.80052 37942 ft 462 kts 352°
2026-05-04 17:25 47.36732 -0.82254 37947 ft 461 kts 352°
2026-05-04 17:26 47.49456 -0.84461 37943 ft 460 kts 352°
2026-05-04 17:27 47.64302 -0.86572 37945 ft 460 kts 354°
2026-05-04 17:28 47.77048 -0.88047 37947 ft 459 kts 354°
2026-05-04 17:29 47.96142 -0.90396 37948 ft 459 kts 354°
2026-05-04 17:31 48.12068 -0.92369 37947 ft 460 kts 354°
2026-05-04 17:32 48.28000 -0.94351 37940 ft 459 kts 354°
2026-05-04 17:33 48.40717 -0.95946 37952 ft 458 kts 354°
2026-05-04 17:34 48.53397 -0.97545 37968 ft 457 kts 354°
2026-05-04 17:35 48.69237 -0.99552 37975 ft 457 kts 354°
2026-05-04 17:36 48.75563 -1.00356 37980 ft 456 kts 354°
2026-05-04 17:36 48.81891 -1.01167 37980 ft 456 kts 354°
2026-05-04 17:37 48.88171 -1.01966 37981 ft 456 kts 354°
2026-05-04 17:37 48.94489 -1.02776 37981 ft 456 kts 354°
2026-05-04 17:38 49.00803 -1.03588 37988 ft 455 kts 354°
2026-05-04 17:38 49.07118 -1.04401 37993 ft 455 kts 354°
2026-05-04 17:39 49.16597 -1.05627 37991 ft 456 kts 354°
2026-05-04 17:39 49.22910 -1.06444 37990 ft 455 kts 354°
2026-05-04 17:40 49.29224 -1.07266 37991 ft 455 kts 354°
2026-05-04 17:40 49.35533 -1.08089 37992 ft 455 kts 354°
2026-05-04 17:41 49.41848 -1.08913 37993 ft 455 kts 354°
2026-05-04 17:41 49.48157 -1.09740 37989 ft 455 kts 354°
2026-05-04 17:42 49.54478 -1.10532 37989 ft 456 kts 358°
2026-05-04 17:42 49.57623 -1.10066 37991 ft 455 kts 14°
2026-05-04 17:42 49.60601 -1.08432 37988 ft 455 kts 28°
2026-05-04 17:43 49.63249 -1.05808 38002 ft 452 kts 39°
2026-05-04 17:43 49.65699 -1.02773 37999 ft 452 kts 40°
2026-05-04 17:43 49.70649 -0.96692 37466 ft 457 kts 39°
2026-05-04 17:44 49.73212 -0.93810 36935 ft 456 kts 32°
2026-05-04 17:44 49.76056 -0.91638 36411 ft 456 kts 21°
2026-05-04 17:44 49.79047 -0.90211 35867 ft 456 kts 12°
2026-05-04 17:44 49.82189 -0.89526 35281 ft 457 kts
2026-05-04 17:45 49.85362 -0.89125 34660 ft 459 kts
2026-05-04 17:45 49.88552 -0.88764 34033 ft 460 kts
2026-05-04 17:45 49.91745 -0.88374 33394 ft 461 kts
2026-05-04 17:45 49.94954 -0.87938 32735 ft 463 kts
2026-05-04 17:46 49.98162 -0.87476 32148 ft 463 kts
2026-05-04 17:46 50.01362 -0.87009 31674 ft 460 kts
2026-05-04 17:46 50.04536 -0.86555 31192 ft 457 kts
2026-05-04 17:46 50.07692 -0.86108 30717 ft 454 kts
2026-05-04 17:47 50.10833 -0.85666 30239 ft 451 kts
2026-05-04 17:47 50.13950 -0.85226 29773 ft 449 kts
2026-05-04 17:47 50.17053 -0.84785 29298 ft 446 kts
2026-05-04 17:47 50.20132 -0.84348 28814 ft 443 kts
2026-05-04 17:48 50.23198 -0.83913 28332 ft 441 kts
2026-05-04 17:48 50.26243 -0.83480 27852 ft 438 kts
2026-05-04 17:48 50.28248 -0.83194 27536 ft 436 kts
2026-05-04 17:48 50.32271 -0.82620 26898 ft 433 kts
2026-05-04 17:49 50.35267 -0.82187 26366 ft 431 kts
2026-05-04 17:49 50.38247 -0.81751 25892 ft 429 kts
2026-05-04 17:49 50.41205 -0.81317 25422 ft 426 kts
2026-05-04 17:49 50.44142 -0.80885 24954 ft 422 kts
2026-05-04 17:50 50.47063 -0.80455 24488 ft 420 kts
2026-05-04 17:50 50.49960 -0.80030 24028 ft 417 kts
2026-05-04 17:50 50.52837 -0.79606 23567 ft 414 kts
2026-05-04 17:50 50.55699 -0.79185 23106 ft 411 kts
2026-05-04 17:51 50.58535 -0.78766 22650 ft 408 kts
2026-05-04 17:51 50.61355 -0.78351 22194 ft 405 kts
2026-05-04 17:51 50.64149 -0.77943 21739 ft 402 kts
2026-05-04 17:51 50.66925 -0.77544 21288 ft 399 kts
2026-05-04 17:52 50.69676 -0.77150 20835 ft 396 kts
2026-05-04 17:52 50.72412 -0.76757 20385 ft 393 kts
2026-05-04 17:52 50.75118 -0.76366 19942 ft 389 kts
2026-05-04 17:52 50.77804 -0.75977 19502 ft 385 kts
2026-05-04 17:53 50.80421 -0.75588 19067 ft 382 kts
2026-05-04 17:53 50.82947 -0.74500 18808 ft 372 kts 22°
2026-05-04 17:53 50.85341 -0.72915 18597 ft 364 kts 23°
2026-05-04 17:53 50.87652 -0.71381 18390 ft 358 kts 23°
2026-05-04 17:54 50.89936 -0.69875 18186 ft 354 kts 23°
2026-05-04 17:54 50.92225 -0.68375 17989 ft 358 kts 22°
2026-05-04 17:54 50.94541 -0.66864 17795 ft 362 kts 22°
2026-05-04 17:54 50.96840 -0.65370 17583 ft 360 kts 22°
2026-05-04 17:55 50.99152 -0.63870 17367 ft 358 kts 22°
2026-05-04 17:55 51.01453 -0.62377 17165 ft 356 kts 22°
2026-05-04 17:55 51.03741 -0.60893 16955 ft 355 kts 22°
2026-05-04 17:55 51.06025 -0.59410 16753 ft 354 kts 22°
2026-05-04 17:56 51.08297 -0.57933 16551 ft 353 kts 22°
2026-05-04 17:56 51.10572 -0.56453 16348 ft 352 kts 22°
2026-05-04 17:56 51.12868 -0.54958 16146 ft 352 kts 22°
2026-05-04 17:56 51.15130 -0.53482 15948 ft 351 kts 22°
2026-05-04 17:57 51.17354 -0.52030 15748 ft 350 kts 22°
2026-05-04 17:57 51.19606 -0.50559 15546 ft 350 kts 22°
2026-05-04 17:57 51.21863 -0.49084 15345 ft 350 kts 22°
2026-05-04 17:57 51.24108 -0.47616 15143 ft 349 kts 22°
2026-05-04 17:58 51.26354 -0.46143 14940 ft 349 kts 22°
2026-05-04 17:58 51.28596 -0.44671 14738 ft 348 kts 22°
2026-05-04 17:58 51.30827 -0.43206 14540 ft 346 kts 22°
2026-05-04 17:58 51.33057 -0.41740 14342 ft 345 kts 22°
2026-05-04 17:59 51.35273 -0.40281 14140 ft 344 kts 22°
2026-05-04 17:59 51.37480 -0.38827 13949 ft 343 kts 22°
2026-05-04 17:59 51.41881 -0.35924 13554 ft 341 kts 22°
2026-05-04 18:00 51.44064 -0.34467 13354 ft 340 kts 24°
2026-05-04 18:00 51.46211 -0.32889 13032 ft 338 kts 25°
2026-05-04 18:00 51.48304 -0.31274 12692 ft 327 kts 26°
2026-05-04 18:00 51.50314 -0.29707 12354 ft 315 kts 26°
2026-05-04 18:01 51.52253 -0.28200 12018 ft 305 kts 26°
2026-05-04 18:01 51.54141 -0.26740 11692 ft 296 kts 25°
2026-05-04 18:01 51.55981 -0.25321 11366 ft 291 kts 25°
2026-05-04 18:02 51.59612 -0.22524 10711 ft 288 kts 25°
2026-05-04 18:02 51.61414 -0.21137 10397 ft 286 kts 25°
2026-05-04 18:02 51.63202 -0.19761 10073 ft 285 kts 25°
2026-05-04 18:02 51.64988 -0.18386 9737 ft 284 kts 25°
2026-05-04 18:03 51.66768 -0.17015 9418 ft 283 kts 25°
2026-05-04 18:03 51.68541 -0.15647 9096 ft 282 kts 25°
2026-05-04 18:03 51.70311 -0.14282 8774 ft 282 kts 25°
2026-05-04 18:03 51.72078 -0.12916 8448 ft 281 kts 25°
2026-05-04 18:04 51.73842 -0.11554 8126 ft 281 kts 25°
2026-05-04 18:04 51.75612 -0.10234 7808 ft 279 kts 20°
2026-05-04 18:04 51.79300 -0.10813 7129 ft 274 kts 325°
2026-05-04 18:05 51.80587 -0.13041 6812 ft 273 kts 298°
2026-05-04 18:05 51.81083 -0.15959 6494 ft 271 kts 270°
2026-05-04 18:05 51.80678 -0.18896 6169 ft 270 kts 243°
2026-05-04 18:05 51.79473 -0.21178 5837 ft 270 kts 215°
2026-05-04 18:06 51.75939 -0.21937 5234 ft 259 kts 157°
2026-05-04 18:06 51.74503 -0.20329 4999 ft 247 kts 129°
2026-05-04 18:06 51.73706 -0.17980 4782 ft 237 kts 105°
2026-05-04 18:07 51.73506 -0.15369 4588 ft 233 kts 84°
2026-05-04 18:07 51.73818 -0.12820 4409 ft 232 kts 74°
2026-05-04 18:07 51.74258 -0.10310 4209 ft 232 kts 73°
2026-05-04 18:07 51.74707 -0.07814 4007 ft 232 kts 73°
2026-05-04 18:08 51.75154 -0.05303 3815 ft 232 kts 73°
2026-05-04 18:08 51.75587 -0.02835 3610 ft 225 kts 73°
2026-05-04 18:08 51.76000 -0.00447 3414 ft 216 kts 73°
2026-05-04 18:08 51.76394 0.01849 3220 ft 209 kts 73°
2026-05-04 18:09 51.77203 0.06260 2919 ft 199 kts 60°
2026-05-04 18:09 51.79056 0.09181 2636 ft 177 kts 49°
2026-05-04 18:10 51.79917 0.10585 2406 ft 174 kts 44°
2026-05-04 18:10 51.80802 0.11896 2179 ft 171 kts 45°
2026-05-04 18:10 51.81673 0.13203 1957 ft 171 kts 45°
2026-05-04 18:10 51.82544 0.14515 1736 ft 170 kts 44°
2026-05-04 18:11 51.83384 0.15780 1544 ft 158 kts 43°
2026-05-04 18:11 51.84172 0.16968 1311 ft 151 kts 41°
2026-05-04 18:11 51.84913 0.18084 1108 ft 145 kts 41°
2026-05-04 18:11 51.85644 0.19183 930 ft 144 kts 41°
2026-05-04 18:12 51.86382 0.20294 735 ft 143 kts 41°
2026-05-04 18:12 51.87114 0.21400 510 ft 146 kts 41°
2026-05-04 18:12 51.87852 0.22509 337 ft 144 kts 42°
2026-05-04 18:12 51.88480 0.23443 340 ft 93 kts 42°
2026-05-04 18:13 51.88794 0.23924 340 ft 36 kts 53°
2026-05-04 18:13 51.88878 0.24214 350 ft 27 kts 71°
2026-05-04 18:13 51.88877 0.24569 354 ft 14 kts 136°
2026-05-04 18:14 51.88831 0.24642 353 ft 13 kts 132°
2026-05-04 18:14 51.88837 0.24769 355 ft 13 kts 43°
2026-05-04 18:14 51.88907 0.24875 354 ft 15 kts 43°
2026-05-04 18:15 51.89093 0.25152 351 ft 19 kts 43°
2026-05-04 18:15 51.89278 0.25427 356 ft 18 kts 43°
2026-05-04 18:15 51.89364 0.25559 351 ft 17 kts 43°
2026-05-04 18:16 51.89450 0.25688 359 ft 16 kts 43°
2026-05-04 18:16 51.89526 0.25806 351 ft 11 kts 53°
2026-05-04 18:16 51.89513 0.25891 355 ft 7 kts 134°
2026-05-04 18:17 51.89463 0.25882 359 ft 4 kts 218°
2026-05-04 18:17 51.89451 0.25866 351 ft 0 kts 218°